Flag for U.S.A. Weather past 2 weeks in Metairie, Louisiana, U.S.A.

Now
79 °F

Broken clouds.


Feels Like: 82 °F
Forecast: 75 / 83 °F
Wind: 13 mph from Southeast

Location: New Orleans International Airport

Current Time: Sep 19, 2014 at 9:31:26 AM

Latest Report: Sep 19, 2014 at 8:53 AM


Visibility: 10 mi

Pressure: 29.96 "Hg

Humidity: 72%

Dew point: 69 °F

Location of MetairieLocation

Historic Weather in Metairie — Graph

°F

Metairie temperature yesterday

Maximum temperature yesterday: 88 °F (at 11:53 AM)
Minimum temperature yesterday: 75 °F (at 1:53 AM)
Average temperature yesterday: 81 °F

Past Weeks' High & Low Weather Summary

 TemperatureHumidityPressure
High93 °F (Sep 9, 2:53 PM)94% (Sep 7, 3:53 AM)30.14 "Hg (Sep 7, 3:53 AM)
Low73 °F (Sep 17, 5:53 AM)47% (Sep 9, 2:53 PM)29.86 "Hg (Sep 18, 3:53 PM)
Average81 °F77%30.01 "Hg
* Reported Sep 4 7:53 AM — Sep 19 7:53 AM, Metairie, Weather by CustomWeather, © 2014

Note: Actual official high and low records may vary slightly from our data, if they occured in-between our weather recording intervals... More about our weather records

Advertising

Metairie weather history for previous 24 hours

 ConditionsComfort  
Time TempWeatherWind HumidityBarometerVisibility
7:53 AM
Sep 19
76 °FPartly sunny.3 mph80%29.96 "Hg10 mi
6:53 AM76 °FPassing clouds.6 mph77%29.93 "Hg10 mi
5:53 AM75 °FPassing clouds.6 mph85%29.91 "Hg10 mi
4:53 AM75 °FOvercast.3 mph79%29.91 "Hg10 mi
3:53 AM75 °FPassing clouds.3 mph79%29.92 "Hg10 mi
2:53 AM74 °FPassing clouds.5 mph82%29.91 "Hg10 mi
1:53 AM75 °FLight rain. Passing clouds.15 mph79%29.93 "Hg10 mi
12:53 AM79 °FPartly cloudy.10 mph69%29.93 "Hg10 mi
11:53 PM
Sep 18
79 °FPartly cloudy.No wind77%29.93 "Hg10 mi
10:53 PM78 °FPassing clouds.No wind76%29.93 "Hg10 mi
9:53 PM79 °FMostly cloudy.7 mph72%29.93 "Hg10 mi
8:53 PM80 °FMostly cloudy.No wind67%29.92 "Hg10 mi
7:53 PM79 °FLight rain. Mostly cloudy.3 mph67%29.90 "Hg10 mi
6:53 PM79 °FCloudy.No wind62%29.89 "Hg10 mi
5:53 PM81 °FCloudy.15 mph65%29.88 "Hg10 mi
4:53 PM84 °FMostly cloudy.8 mph67%29.87 "Hg10 mi
3:53 PM87 °FBroken clouds.9 mph63%29.86 "Hg10 mi
2:53 PM87 °FBroken clouds.12 mph63%29.89 "Hg8 mi
1:53 PM87 °FMore clouds than sun.7 mph59%29.91 "Hg10 mi
12:53 PM87 °FCloudy.7 mph61%29.92 "Hg10 mi
11:53 AM88 °FCloudy.No wind57%29.93 "Hg10 mi
10:53 AM85 °FCloudy.7 mph88%29.95 "Hg10 mi
9:53 AM83 °FPartly sunny.7 mph74%29.96 "Hg9 mi
Weather by CustomWeather, © 2014

See weather overviewHow to use our weather pages